SCP
0 0 0 0 0 1 1 0 0 0 0 0 0 0 0 0 0 0 0 0 0 0 0 0 0 0 0 0 0 0 0 0 0 0 0 0 0 0 0 0 0 0 0
0 0 0 0 0 1 1 1 0 0 0 0 0 0 0 0 0 0 0 0 0 0 0 0 0 0 0 0 0 0 0 0 0 0 0 0 0 0 0 0 0 0 0
0 0 0 0 1 1 1 1 1 0 0 0 0 0 0 0 0 0 0 0 0 0 0 0 0 0 0 0 0 0 0 0 0 0 0 0 0 0 0 0 0 0 0
0 0 0 1 1 1 1 1 1 0 0 0 0 0 0 0 0 0 0 0 0 0 0 0 0 0 0 0 0 0 0 0 0 -0 -0 0 0 0 0 0 0 0 0
0 0 0 1 1 1 1 1 1 0 0 0 0 0 0 0 0 0 0 0 0 0 0 0 0 0 0 0 0 0 0 0 -0 -0 -0 0 0 0 0 0 0 0 0
0 0 0 1 1 1 1 1 1 0 0 0 0 0 0 0 0 0 0 0 0 0 0 0 0 0 0 0 0 0 0 0 -0 -0 0 0 0 0 0 0 0 0 0
0 0 0 1 1 1 1 1 1 0 0 0 0 0 0 0 0 0 0 0 0 0 0 0 0 0 0 0 0 0 0 0 0 0 0 0 0 0 0 0 0 0 0
0 0 0 0 1 1 1 1 1 0 0 0 0 0 0 0 0 0 0 0 0 0 0 0 0 0 0 0 0 0 0 0 0 0 0 0 0 0 0 0 0 0 0
0 0 0 0 0 1 1 1 1 0 0 0 0 0 0 0 0 0 0 0 0 0 0 0 0 0 0 0 0 0 0 0 0 0 0 0 0 0 0 0 0 0 0
0 0 0 0 0 0 0 0 0 0 0 0 0 0 0 0 0 0 0 0 0 0 0 0 0 0 0 0 0 0 0 0 0 0 0 0 0 0 0 0 0 0 0
0 0 0 0 0 0 0 0 0 0 0 0 0 0 0 0 0 0 0 0 0 0 0 0 0 0 0 0 0 0 0 0 0 0 0 0 0 0 0 0 0 0 0
0 0 0 0 0 0 0 0 0 0 0 0 0 0 0 0 0 0 0 0 0 0 0 0 0 0 0 0 0 0 0 0 0 0 0 0 0 0 0 0 0 0 -0
0 0 0 0 0 0 0 0 0 0 0 0 0 0 0 0 0 0 0 0 0 0 0 0 0 0 0 0 0 0 0 0 0 0 0 0 0 0 0 0 0 0 0
0 0 0 0 0 0 0 0 0 0 0 0 0 0 0 0 0 0 0 0 0 0 0 0 0 0 0 0 0 0 0 0 0 0 0 0 0 0 0 0 0 0 0
0 0 0 0 0 0 0 0 0 0 0 0 0 0 0 0 0 0 0 0 0 0 0 0 0 0 0 0 0 0 0 0 0 0 0 0 0 0 0 0 0 0 0
0 0 0 0 0 0 0 0 0 0 0 0 0 0 0 1 1 1 0 0 0 0 0 0 0 0 0 0 0 0 0 0 0 0 0 0 0 0 0 0 0 0 0
0 0 0 0 0 0 0 0 0 0 0 0 0 0 0 0 1 1 1 0 0 0 0 0 0 0 0 0 0 0 0 0 0 0 0 0 0 0 0 0 0 0 0
0 0 0 0 0 0 0 0 0 0 0 0 0 0 0 0 1 1 1 1 0 0 0 0 0 0 0 0 0 0 0 0 0 0 0 0 0 0 0 0 0 0 0
0 0 0 0 0 0 0 0 0 0 0 0 0 0 0 0 1 1 1 1 1 0 0 0 0 0 0 0 0 0 0 0 0 0 0 0 0 0 0 0 0 0 0
0 0 0 0 0 0 0 0 0 0 0 0 0 0 0 0 1 1 1 1 1 1 0 0 0 0 0 0 0 0 0 0 0 0 0 0 0 0 0 0 0 0 0
0 0 0 0 0 0 0 0 0 0 0 0 0 0 0 0 1 1 1 1 1 1 0 0 0 0 0 0 0 0 0 0 0 0 0 0 0 0 0 0 0 0 0
0 0 0 0 0 0 0 0 0 0 0 0 0 0 0 0 0 1 1 1 1 0 0 0 0 0 0 0 0 0 0 0 0 0 0 0 0 0 0 0 0 0 0
0 0 0 0 0 0 0 0 0 0 0 0 0 0 0 0 0 0 0 0 1 0 0 0 0 0 0 0 0 0 0 0 0 0 0 0 0 0 0 0 0 0 0
0 0 0 0 0 0 0 0 0 0 0 0 0 0 0 0 0 0 0 0 0 0 0 0 0 0 0 0 0 0 0 0 0 0 0 0 0 0 0 0 0 0 0
0 0 0 0 0 0 0 0 0 0 0 0 0 0 0 0 0 0 0 0 0 0 0 0 0 0 0 0 0 0 0 0 0 0 0 0 0 0 0 0 0 0 0
0 0 0 0 0 0 0 0 0 0 0 0 0 0 0 0 0 0 0 0 0 0 0 0 0 0 0 0 0 0 0 0 0 0 0 0 0 0 0 0 0 0 0
Wind_Speed
3 6 9 7 8 9 9 11 11 11 11 10 10 10 10 10 10 10 10 10 10 10 10 10 10 10 10 11 12 12 13 13 13 14 13 12 12 12 12 11 13 10 14
2 5 10 8 8 8 8 9 10 10 10 10 10 10 10 9 10 9 10 9 9 9 10 10 10 10 10 11 11 12 12 12 12 12 11 10 10 12 13 14 13 8 13
4 5 8 7 7 7 7 8 10 10 10 10 10 10 10 9 9 9 9 9 9 9 9 9 9 11 11 11 11 11 10 9 9 7 8 6 7 11 12 13 12 12 12
4 4 6 7 7 7 7 8 9 10 10 10 10 10 10 9 9 9 9 9 9 9 9 9 10 11 11 11 10 9 8 6 3 2 2 5 6 10 11 11 11 11 11
5 4 6 8 6 7 7 7 8 9 10 9 9 10 10 9 9 9 9 8 8 8 9 10 10 11 11 10 9 8 5 3 2 2 4 7 5 8 10 10 10 11 11
6 5 5 6 6 6 6 7 8 9 9 9 9 10 10 10 10 9 8 8 8 9 10 10 11 11 10 9 8 7 4 2 3 0 5 6 5 8 9 9 9 9 9
6 4 3 4 5 6 6 7 7 8 9 9 10 10 11 10 10 9 9 9 9 10 10 11 11 11 10 9 8 6 3 3 3 1 5 6 6 8 9 8 8 8 8
5 4 2 2 3 5 6 7 7 8 8 9 9 10 10 10 10 10 10 10 10 11 11 11 11 11 10 9 7 5 3 4 3 3 5 6 7 8 8 7 7 7 6
5 4 2 1 1 3 5 6 7 8 8 8 9 9 9 10 9 10 10 11 11 12 11 11 11 11 10 9 7 5 4 5 4 0 6 5 6 7 7 6 5 5 5
5 4 3 2 1 1 2 6 7 8 8 9 9 9 9 9 9 10 10 11 11 11 11 11 11 11 10 8 7 6 5 5 4 1 4 5 8 7 6 5 5 4 4
5 4 4 3 2 2 2 4 6 7 8 8 8 9 9 6 7 8 10 11 12 12 12 12 12 11 9 7 7 6 4 3 4 2 3 8 8 7 6 5 4 4 3
5 5 4 4 3 3 3 2 3 4 5 6 5 7 6 6 6 8 11 13 13 12 12 12 11 10 7 4 5 6 3 5 3 2 5 10 9 8 7 6 5 4 3
4 4 4 4 4 3 2 2 2 2 3 5 6 7 6 5 5 5 4 7 8 9 7 8 8 5 5 5 5 5 5 5 3 3 6 11 9 8 8 7 6 5 5
4 4 4 4 4 4 3 2 2 2 3 3 5 6 5 4 4 4 5 6 6 5 6 6 5 6 7 7 7 7 7 4 3 2 6 11 9 9 9 8 8 7 6
5 5 5 5 4 4 3 3 3 3 3 4 4 5 5 4 5 5 5 6 6 6 6 7 7 8 8 7 7 8 7 7 5 4 5 11 10 9 9 9 9 8 8
5 5 5 5 5 4 4 3 3 3 4 4 4 5 6 5 5 5 5 6 7 6 6 7 8 7 6 6 6 7 6 6 6 5 6 8 11 10 10 11 10 10 10
5 5 5 5 5 5 5 5 4 4 4 4 4 5 6 6 6 5 5 6 6 7 7 6 7 6 5 5 6 6 5 5 5 5 6 6 7 10 11 12 12 11 11
5 6 6 6 5 5 5 4 4 4 4 4 4 4 6 6 6 6 5 5 6 6 6 6 5 5 5 5 4 4 4 4 5 5 5 6 6 6 9 12 12 12 12
5 5 6 5 5 6 6 4 4 4 4 3 3 4 5 6 6 5 5 5 5 5 5 6 5 5 5 5 5 4 4 4 5 5 5 6 7 7 6 10 13 12 11
5 5 6 5 5 5 5 4 3 4 4 3 3 4 5 5 6 5 4 5 5 5 5 5 6 5 4 5 5 4 4 4 4 5 6 5 6 7 7 7 7 9 13
5 6 6 5 5 3 3 3 3 3 3 3 3 5 5 5 5 5 4 5 5 6 6 6 5 6 5 3 2 2 3 5 5 5 5 5 6 7 7 7 6 6 6
6 6 6 5 4 4 3 3 3 3 3 3 3 4 5 5 5 5 5 5 5 5 6 7 5 4 4 5 4 2 2 4 6 7 5 6 6 5 7 8 7 7 6
7 6 6 6 5 4 3 2 3 3 3 3 3 4 5 5 5 5 5 5 5 6 6 7 7 7 5 5 5 5 4 5 3 4 7 7 7 6 6 6 8 8 8
8 6 6 6 5 4 3 2 3 3 4 4 3 3 4 5 5 5 6 6 6 5 6 6 7 6 6 5 5 5 4 3 3 2 4 6 7 7 7 6 7 8 8
8 7 6 6 6 4 3 3 3 4 4 3 3 4 4 3 4 5 5 5 5 5 6 6 6 7 7 7 5 4 5 4 4 3 3 4 4 5 6 7 6 6 7
8 7 6 6 6 5 4 3 3 4 5 4 4 3 3 2 2 3 4 3 4 4 5 6 6 7 7 8 7 6 5 5 6 5 5 5 5 5 6 6 6 6 7
Wind_Direction
49 122 134 140 145 145 149 151 149 147 146 147 146 142 139 138 135 134 132 131 129 127 123 120 118 113 107 101 98 94 92 91 90 88 82 79 79 78 76 81 82 73 76
12 122 136 141 146 147 149 154 152 151 151 153 152 150 150 149 145 143 142 141 140 136 131 127 124 119 113 108 103 100 100 101 104 103 94 78 74 75 73 73 79 81 79
29 108 137 138 144 146 149 152 155 156 157 159 159 159 159 158 155 153 152 150 149 144 137 132 128 121 114 110 107 107 109 116 124 131 118 101 86 82 81 81 82 83 82
40 94 133 133 144 149 151 155 157 161 163 166 167 166 166 166 164 163 162 156 153 147 140 134 128 123 119 114 113 115 120 131 147 197 142 105 93 91 89 87 86 85 83
41 76 125 137 147 152 156 161 163 168 171 173 173 173 174 174 172 171 167 160 155 147 142 137 133 128 124 123 124 127 137 165 258 262 92 92 88 97 93 89 87 85 83
31 50 114 140 151 158 164 170 174 177 179 181 181 180 182 182 181 176 168 159 153 148 146 143 139 134 131 133 136 142 160 236 298 209 104 104 102 105 100 96 92 89 85
25 34 103 142 161 168 173 175 180 186 188 189 189 189 190 190 188 179 167 162 157 154 154 152 148 143 141 144 148 156 187 269 279 78 93 98 110 113 107 102 97 93 89
24 23 51 131 174 185 185 185 187 191 194 197 197 199 197 197 194 182 173 169 166 164 164 161 157 154 153 155 159 169 214 280 283 122 107 106 124 122 116 110 104 98 95
18 21 14 42 159 201 199 195 198 199 200 202 203 203 200 198 195 186 179 176 174 172 170 167 166 164 164 165 166 180 230 272 304 176 124 119 134 134 130 125 120 113 105
10 14 7 2 6 269 222 211 207 206 206 206 207 203 201 201 197 190 186 182 179 177 175 172 170 171 171 170 172 186 228 274 273 186 119 135 148 150 148 147 140 129 118
5 3 0 354 346 322 262 228 212 211 210 208 207 203 199 200 199 192 194 187 183 181 181 177 174 172 169 170 175 190 218 251 248 165 123 146 159 166 165 167 164 154 142
348 347 351 349 333 318 295 263 223 216 207 210 209 198 199 201 199 196 192 187 185 183 182 181 178 171 169 172 181 190 221 240 233 156 142 155 168 178 180 182 183 181 180
328 328 332 330 323 312 296 284 250 230 212 211 216 203 198 199 196 191 171 177 181 180 182 183 178 182 192 186 178 195 223 232 214 167 153 163 175 188 191 193 198 201 206
320 320 322 320 312 298 282 274 265 244 224 216 217 212 199 195 192 178 174 175 178 183 185 182 186 197 203 200 186 194 213 221 211 168 162 169 178 195 201 204 208 212 215
311 312 310 304 298 294 283 266 262 250 235 228 221 216 202 195 194 186 182 181 184 184 186 185 191 200 202 207 200 198 205 205 208 187 162 179 181 195 207 209 214 217 220
307 304 303 300 292 286 279 266 259 248 241 234 225 219 210 200 194 191 190 186 189 188 188 189 193 199 201 204 207 204 206 202 206 189 165 184 190 196 208 214 218 222 224
308 305 298 293 291 286 279 274 270 258 245 236 231 223 214 206 199 192 195 193 193 190 189 192 195 196 196 200 206 209 211 211 208 196 175 175 188 202 209 216 219 223 224
306 304 299 299 295 285 275 270 272 268 255 240 232 230 222 216 207 196 195 198 196 190 189 192 194 191 192 194 204 213 211 212 217 209 189 180 182 192 207 216 220 222 224
303 303 298 290 289 291 287 273 266 270 267 250 237 233 230 222 215 203 197 198 195 192 193 195 197 190 190 194 203 212 215 211 213 215 206 194 190 188 188 207 215 219 221
314 309 302 294 283 282 283 282 276 270 269 262 245 239 238 227 218 209 201 199 196 193 196 196 194 192 191 191 204 214 219 221 212 211 212 205 197 193 191 194 203 218 220
321 313 301 296 288 285 283 280 277 272 268 268 256 245 242 233 222 216 210 202 200 200 199 196 192 193 196 177 172 222 247 239 232 219 211 206 204 199 195 196 195 199 210
322 319 309 298 289 282 277 275 269 271 268 262 258 252 244 232 220 220 213 207 204 201 202 199 194 191 194 180 164 167 228 245 243 229 216 210 209 200 201 201 199 201 199
326 319 315 305 291 279 279 289 297 292 287 280 272 261 248 239 226 217 215 212 209 205 206 205 200 194 198 196 182 175 186 215 225 226 219 213 207 204 206 202 205 205 202
331 326 320 315 306 297 288 282 281 279 272 269 267 261 254 245 237 221 216 213 212 212 212 210 207 203 197 199 202 209 208 190 192 232 235 220 211 210 208 207 208 209 204
341 337 328 326 320 312 300 280 275 278 279 282 280 270 262 246 241 237 226 213 210 211 214 214 210 207 206 203 198 198 217 234 224 211 236 230 224 221 213 210 206 207 207
346 344 340 335 330 330 323 311 292 285 286 291 287 274 275 267 248 248 242 226 217 210 210 214 214 215 216 214 209 204 196 198 206 210 223 222 225 225 220 216 212 211 208